Time,TemperatureF,DewpointF,PressureIn,WindDirection,WindDirectionDegrees,WindSpeedMPH,WindSpeedGustMPH,Humidity,HourlyPrecipIn,Conditions,Clouds,dailyrainin,SolarRadiationWatts/m^2,SoftwareType,DateUTC
2013-06-29 00:01:00,74.0,38.0,-100.00,East,92,6.0,13.0,27,0.00,,,0.00,0.000000,,2013-06-29 06:01:00,
2013-06-29 00:12:00,74.0,38.0,-100.00,East,92,6.0,13.0,27,0.00,,,0.00,0.000000,,2013-06-29 06:12:00,
2013-06-29 00:22:00,74.0,38.0,-100.00,East,92,6.0,13.0,27,0.00,,,0.00,0.000000,,2013-06-29 06:22:00,
2013-06-29 00:30:00,70.0,40.0,-100.00,East,87,4.0,10.0,33,0.00,,,0.00,0.000000,,2013-06-29 06:30:00,
2013-06-29 00:53:00,70.0,40.0,-100.00,East,87,4.0,10.0,33,0.00,,,0.00,0.000000,,2013-06-29 06:53:00,
2013-06-29 01:02:00,70.0,40.0,-100.00,East,87,4.0,10.0,33,0.00,,,0.00,0.000000,,2013-06-29 07:02:00,
2013-06-29 01:12:00,70.0,40.0,-100.00,East,87,4.0,10.0,33,0.00,,,0.00,0.000000,,2013-06-29 07:12:00,
2013-06-29 01:22:00,70.0,40.0,-100.00,East,87,4.0,10.0,33,0.00,,,0.00,0.000000,,2013-06-29 07:22:00,
2013-06-29 01:30:00,68.0,39.0,-100.00,ENE,62,3.0,7.0,35,0.00,,,0.00,0.000000,,2013-06-29 07:30:00,
2013-06-29 02:01:00,68.0,39.0,-100.00,ENE,62,3.0,7.0,35,0.00,,,0.00,0.000000,,2013-06-29 08:01:00,
2013-06-29 02:12:00,68.0,39.0,-100.00,ENE,62,3.0,7.0,35,0.00,,,0.00,0.000000,,2013-06-29 08:12:00,
2013-06-29 02:22:00,68.0,39.0,-100.00,ENE,62,3.0,7.0,35,0.00,,,0.00,0.000000,,2013-06-29 08:22:00,
2013-06-29 02:30:00,68.0,40.0,-100.00,NE,46,5.0,7.0,36,0.00,,,0.00,0.000000,,2013-06-29 08:30:00,
2013-06-29 03:02:00,68.0,40.0,-100.00,NE,46,5.0,7.0,36,0.00,,,0.00,0.000000,,2013-06-29 09:02:00,
2013-06-29 03:12:00,68.0,40.0,-100.00,NE,46,5.0,7.0,36,0.00,,,0.00,0.000000,,2013-06-29 09:12:00,
2013-06-29 03:22:00,68.0,40.0,-100.00,NE,46,5.0,7.0,36,0.00,,,0.00,0.000000,,2013-06-29 09:22:00,
2013-06-29 03:53:00,67.0,39.0,-100.00,NE,34,4.0,8.0,36,0.00,,,0.00,0.000000,,2013-06-29 09:53:00,
2013-06-29 04:01:00,67.0,39.0,-100.00,NE,34,4.0,8.0,36,0.00,,,0.00,0.000000,,2013-06-29 10:01:00,
2013-06-29 04:11:00,67.0,39.0,-100.00,NE,34,4.0,8.0,36,0.00,,,0.00,0.000000,,2013-06-29 10:11:00,
2013-06-29 04:22:00,67.0,39.0,-100.00,NE,34,4.0,8.0,36,0.00,,,0.00,0.000000,,2013-06-29 10:22:00,
2013-06-29 04:30:00,66.0,39.0,-100.00,NE,43,4.0,7.0,37,-99.99,,,0.00,0.000000,,2013-06-29 10:30:00,
2013-06-29 04:53:00,66.0,39.0,-100.00,NE,43,4.0,7.0,37,-99.99,,,0.00,0.000000,,2013-06-29 10:53:00,
2013-06-29 05:01:00,66.0,39.0,-100.00,NE,43,4.0,7.0,37,-99.99,,,0.00,0.000000,,2013-06-29 11:01:00,
2013-06-29 05:11:00,66.0,39.0,-100.00,NE,43,4.0,7.0,37,-99.99,,,0.00,0.000000,,2013-06-29 11:11:00,
2013-06-29 05:53:00,65.0,39.0,-100.00,NNE,28,4.0,7.0,38,0.00,,,0.00,0.000000,,2013-06-29 11:53:00,
2013-06-29 06:02:00,65.0,39.0,-100.00,NNE,28,4.0,7.0,38,0.00,,,0.00,0.000000,,2013-06-29 12:02:00,
2013-06-29 06:12:00,65.0,39.0,-100.00,NNE,28,4.0,7.0,38,0.00,,,0.00,0.000000,,2013-06-29 12:12:00,
2013-06-29 06:22:00,65.0,39.0,-100.00,NNE,28,4.0,7.0,38,0.00,,,0.00,0.000000,,2013-06-29 12:22:00,
2013-06-29 06:30:00,65.0,39.0,-100.00,North,5,3.0,5.0,38,-99.99,,,0.00,14.000000,,2013-06-29 12:30:00,
2013-06-29 07:02:00,65.0,39.0,-100.00,North,5,3.0,5.0,38,-99.99,,,0.00,14.000000,,2013-06-29 13:02:00,
2013-06-29 07:11:00,65.0,39.0,-100.00,North,5,3.0,5.0,38,-99.99,,,0.00,14.000000,,2013-06-29 13:11:00,
2013-06-29 07:23:00,65.0,39.0,-100.00,North,5,3.0,5.0,38,-99.99,,,0.00,14.000000,,2013-06-29 13:23:00,
2013-06-29 08:30:00,76.0,41.0,-100.00,East,91,3.0,7.0,29,0.00,,,0.00,363.000000,,2013-06-29 14:30:00,
2013-06-29 09:11:00,76.0,41.0,-100.00,East,91,3.0,7.0,29,0.00,,,0.00,363.000000,,2013-06-29 15:11:00,
2013-06-29 09:30:00,81.0,42.0,-100.00,SE,134,4.0,10.0,25,0.00,,,0.00,617.000000,,2013-06-29 15:30:00,
2013-06-29 10:12:00,81.0,42.0,-100.00,SE,134,4.0,10.0,25,0.00,,,0.00,617.000000,,2013-06-29 16:12:00,
2013-06-29 10:22:00,81.0,42.0,-100.00,SE,134,4.0,10.0,25,0.00,,,0.00,617.000000,,2013-06-29 16:22:00,
2013-06-29 10:30:00,85.0,42.0,-100.00,SSE,158,2.0,8.0,22,0.00,,,0.00,815.000000,,2013-06-29 16:30:00,
2013-06-29 11:12:00,85.0,42.0,-100.00,SSE,158,2.0,8.0,22,0.00,,,0.00,815.000000,,2013-06-29 17:12:00,
2013-06-29 11:22:00,85.0,42.0,-100.00,SSE,158,2.0,8.0,22,0.00,,,0.00,815.000000,,2013-06-29 17:22:00,
2013-06-29 11:30:00,89.0,41.0,-100.00,South,181,2.0,8.0,19,0.00,,,0.00,970.000000,,2013-06-29 17:30:00,
2013-06-29 12:01:00,89.0,41.0,-100.00,South,181,2.0,8.0,19,0.00,,,0.00,970.000000,,2013-06-29 18:01:00,
2013-06-29 12:12:00,89.0,41.0,-100.00,South,181,2.0,8.0,19,0.00,,,0.00,970.000000,,2013-06-29 18:12:00,
2013-06-29 12:22:00,89.0,41.0,-100.00,South,181,2.0,8.0,19,0.00,,,0.00,970.000000,,2013-06-29 18:22:00,
2013-06-29 12:30:00,90.0,39.0,-100.00,SSE,166,6.0,14.0,17,0.00,,,0.00,1042.000000,,2013-06-29 18:30:00,
2013-06-29 13:01:00,90.0,39.0,-100.00,SSE,166,6.0,14.0,17,0.00,,,0.00,1042.000000,,2013-06-29 19:01:00,
2013-06-29 13:12:00,90.0,39.0,-100.00,SSE,166,6.0,14.0,17,0.00,,,0.00,1042.000000,,2013-06-29 19:12:00,
2013-06-29 13:22:00,90.0,39.0,-100.00,SSE,166,6.0,14.0,17,0.00,,,0.00,1042.000000,,2013-06-29 19:22:00,
2013-06-29 13:30:00,93.0,40.0,-100.00,SSW,213,6.0,15.0,16,0.00,,,0.00,1103.000000,,2013-06-29 19:30:00,
2013-06-29 13:54:00,93.0,40.0,-100.00,SSW,213,6.0,15.0,16,0.00,,,0.00,1103.000000,,2013-06-29 19:54:00,
2013-06-29 14:02:00,93.0,40.0,-100.00,SSW,213,6.0,15.0,16,0.00,,,0.00,1103.000000,,2013-06-29 20:02:00,
2013-06-29 14:11:00,93.0,40.0,-100.00,SSW,213,6.0,15.0,16,0.00,,,0.00,1103.000000,,2013-06-29 20:11:00,
2013-06-29 14:23:00,93.0,40.0,-100.00,SSW,213,6.0,15.0,16,0.00,,,0.00,1103.000000,,2013-06-29 20:23:00,
2013-06-29 14:52:00,93.0,37.0,-100.00,WNW,286,6.0,13.0,14,-99.99,,,0.00,1081.000000,,2013-06-29 20:52:00,
2013-06-29 15:02:00,93.0,37.0,-100.00,WNW,286,6.0,13.0,14,-99.99,,,0.00,1081.000000,,2013-06-29 21:02:00,
2013-06-29 16:01:00,91.0,35.0,-100.00,SW,228,7.0,18.0,14,0.00,,,0.00,739.000000,,2013-06-29 22:01:00,
2013-06-29 16:30:00,84.0,37.0,-100.00,NE,41,13.0,28.0,19,0.00,,,0.00,572.000000,,2013-06-29 22:30:00,
2013-06-29 17:02:00,84.0,37.0,-100.00,NE,41,13.0,28.0,19,0.00,,,0.00,572.000000,,2013-06-29 23:02:00,
2013-06-29 17:12:00,84.0,37.0,-100.00,NE,41,13.0,28.0,19,0.00,,,0.00,572.000000,,2013-06-29 23:12:00,
2013-06-29 17:23:00,84.0,37.0,-100.00,NE,41,13.0,28.0,19,0.00,,,0.00,572.000000,,2013-06-29 23:23:00,
2013-06-29 17:30:00,84.0,39.0,-100.00,East,92,9.0,23.0,20,0.00,,,0.00,560.000000,,2013-06-29 23:30:00,
2013-06-29 18:02:00,84.0,39.0,-100.00,East,92,9.0,23.0,20,0.00,,,0.00,560.000000,,2013-06-30 00:02:00,
2013-06-29 18:12:00,84.0,39.0,-100.00,East,92,9.0,23.0,20,0.00,,,0.00,560.000000,,2013-06-30 00:12:00,
2013-06-29 18:22:00,84.0,39.0,-100.00,East,92,9.0,23.0,20,0.00,,,0.00,560.000000,,2013-06-30 00:22:00,
2013-06-29 18:30:00,82.0,36.0,-100.00,SSE,167,3.0,21.0,19,0.00,,,0.00,150.000000,,2013-06-30 00:30:00,
2013-06-29 18:52:00,82.0,36.0,-100.00,SSE,167,3.0,21.0,19,0.00,,,0.00,150.000000,,2013-06-30 00:52:00,
2013-06-29 19:01:00,82.0,36.0,-100.00,SSE,167,3.0,21.0,19,0.00,,,0.00,150.000000,,2013-06-30 01:01:00,
2013-06-29 19:11:00,82.0,36.0,-100.00,SSE,167,3.0,21.0,19,0.00,,,0.00,150.000000,,2013-06-30 01:11:00,
2013-06-29 19:22:00,82.0,36.0,-100.00,SSE,167,3.0,21.0,19,0.00,,,0.00,150.000000,,2013-06-30 01:22:00,
2013-06-29 19:30:00,77.0,39.0,-100.00,ENE,73,3.0,10.0,26,0.00,,,0.00,45.000000,,2013-06-30 01:30:00,
2013-06-29 19:53:00,77.0,39.0,-100.00,ENE,73,3.0,10.0,26,0.00,,,0.00,45.000000,,2013-06-30 01:53:00,
2013-06-29 20:02:00,77.0,39.0,-100.00,ENE,73,3.0,10.0,26,0.00,,,0.00,45.000000,,2013-06-30 02:02:00,
2013-06-29 20:11:00,77.0,39.0,-100.00,ENE,73,3.0,10.0,26,0.00,,,0.00,45.000000,,2013-06-30 02:11:00,
2013-06-29 20:23:00,77.0,39.0,-100.00,ENE,73,3.0,10.0,26,0.00,,,0.00,45.000000,,2013-06-30 02:23:00,
2013-06-29 20:30:00,76.0,40.0,-100.00,North,10,5.0,10.0,27,0.00,,,0.00,11.000000,,2013-06-30 02:30:00,
2013-06-29 20:53:00,76.0,40.0,-100.00,North,10,5.0,10.0,27,0.00,,,0.00,11.000000,,2013-06-30 02:53:00,
2013-06-29 21:01:00,76.0,40.0,-100.00,North,10,5.0,10.0,27,0.00,,,0.00,11.000000,,2013-06-30 03:01:00,
2013-06-29 21:12:00,76.0,40.0,-100.00,North,10,5.0,10.0,27,0.00,,,0.00,11.000000,,2013-06-30 03:12:00,
2013-06-29 21:23:00,76.0,40.0,-100.00,North,10,5.0,10.0,27,0.00,,,0.00,11.000000,,2013-06-30 03:23:00,
2013-06-29 21:30:00,75.0,39.0,-100.00,ENE,75,2.0,8.0,27,0.00,,,0.00,0.000000,,2013-06-30 03:30:00,
2013-06-29 22:01:00,75.0,39.0,-100.00,ENE,75,2.0,8.0,27,0.00,,,0.00,0.000000,,2013-06-30 04:01:00,
2013-06-29 22:12:00,75.0,39.0,-100.00,ENE,75,2.0,8.0,27,0.00,,,0.00,0.000000,,2013-06-30 04:12:00,
2013-06-29 22:22:00,75.0,39.0,-100.00,ENE,75,2.0,8.0,27,0.00,,,0.00,0.000000,,2013-06-30 04:22:00,
2013-06-29 22:30:00,73.0,43.0,-100.00,East,100,8.0,14.0,34,0.00,,,0.00,0.000000,,2013-06-30 04:30:00,
2013-06-29 22:53:00,73.0,43.0,-100.00,East,100,8.0,14.0,34,0.00,,,0.00,0.000000,,2013-06-30 04:53:00,
2013-06-29 23:02:00,73.0,43.0,-100.00,East,100,8.0,14.0,34,0.00,,,0.00,0.000000,,2013-06-30 05:02:00,
2013-06-29 23:12:00,73.0,43.0,-100.00,East,100,8.0,14.0,34,0.00,,,0.00,0.000000,,2013-06-30 05:12:00,
2013-06-29 23:22:00,73.0,43.0,-100.00,East,100,8.0,14.0,34,0.00,,,0.00,0.000000,,2013-06-30 05:22:00,
2013-06-29 23:30:00,71.0,43.0,-100.00,ENE,75,6.0,19.0,36,0.00,,,0.00,0.000000,,2013-06-30 05:30:00,